Location: Exmorrazijl
(53.0627°N, 5.4628°E)
Time: 14:34:47
(UTC+00:00)

Daily predictions for brighter satellites

Satellite Brightness Start Highest point End
(mag) Time Altitude Azimuth Time Altitude Azimuth Time Altitude Azimuth
Cosmos 1553 Rocket 4.4 19:56:11 10° SSW 20:02:20 73° WNW 20:08:37 10° N
Cosmos 1151 Rocket 3.4 19:59:31 10° SSE 20:03:41 45° E 20:07:53 10° NNE
SPOT 3 Rocket 3.6 19:58:52 10° SSE 20:04:02 83° ENE 20:09:13 10° NNW
COSMOS 2406 3.4 19:58:42 10° NNW 20:04:22 65° NE 20:10:01 10° SE
ERBS 3.6 20:01:33 10° WNW 20:04:42 40° N 20:07:51 10° ENE
Cosmos 1437 Rocket 3.4 20:00:50 10° SSW 20:04:43 63° WNW 20:08:43 10° N
SPOT 5 4.1 20:00:13 10° ESE 20:04:47 33° ENE 20:09:30 10° N
USA 290 4.0 20:03:41 10° NW 20:06:35 30° WSW 20:09:27 10° S
Cosmos 2084 4.2 20:04:09 10° S 20:07:45 29° ESE 20:11:26 10° ENE
Resurs 01 Rocket 1.7 20:04:12 10° SSE 20:08:40 83° WSW 20:13:09 10° NNW
Cosmos 1538 Rocket 4.4 20:07:54 10° NNW 20:13:15 58° ENE 20:18:30 10° SE
Cosmos 1933 3.4 20:11:16 10° SSW 20:15:18 85° W 20:19:22 10° N
Cosmos 773 Rocket 4.1 20:11:20 10° NNW 20:16:41 83° WSW 20:21:58 10° SSE
MetOp-B 4.2 20:16:27 10° SSE 20:21:50 90° WSW 20:27:14 10° NNW
ERS-2 4.5 20:18:48 10° N 20:21:57 28° WNW 20:25:05 10° WSW
Cosmos 1271 Rocket 4.4 20:19:24 10° SE 20:22:17 19° E 20:25:11 10° NE
Cosmos 1602 4.2 20:20:27 10° NNW 20:24:17 62° W 20:28:07 10° S
BREEZE-M DEB (TANK) 1.8 20:24:01 10° WSW 20:26:10 34° S 20:27:55 12° ESE
Cosmos 2278 Rocket 2.9 20:21:21 10° S 20:26:20 33° ESE 20:31:21 10° NE
USA 305 3.0 20:23:05 10° WNW 20:27:18 63° SSW 20:31:23 11° SE
Spot 2 Rocket 3.6 20:22:28 10° SSE 20:27:28 66° ENE 20:32:29 10° N
Cosmos 1782 2.8 20:25:00 10° S 20:28:58 77° E 20:32:58 10° NNE
Landsat 7 4.1 20:24:24 10° S 20:29:09 71° WSW 20:33:56 10° NNW
IGS 5A 4.0 20:26:00 10° S 20:30:05 58° W 20:34:13 10° NNW
Cosmos 1844 Rocket 3.4 20:25:01 10° SW 20:30:32 60° NW 20:36:07 10° NNE
Cosmos 1242 Rocket 3.0 20:28:01 10° SSW 20:31:34 63° WNW 20:35:05 10° N
Gbstr 26 Del rocket 4.3 20:24:17 10° W 20:32:14 82° S 20:38:59 10° E
Cosmos 1515 Rocket 4.0 20:30:13 10° SSE 20:34:23 43° E 20:38:33 10° NNE
ERS-1 Rocket 3.3 20:30:20 11° SE 20:35:06 53° ENE 20:40:01 10° N
CZ-4C R/B 3.2 20:28:55 10° NW 20:35:54 69° SW 20:43:47 11° SSE
Cosmos 1633 Rocket 3.7 20:33:43 10° NNW 20:38:03 57° W 20:42:22 10° S
Meteor 1-11 Rocket 4.3 20:36:54 10° N 20:42:45 51° ENE 20:47:53 13° SE
deb Kosmos-1763 3.9 20:41:29 10° NNW 20:45:02 89° ENE 20:47:57 15° SSE
ATLAS 5 CENTAUR R/B 3.7 20:40:16 10° WNW 20:45:04 29° WSW 20:50:32 10° S
USA 306 3.2 20:42:25 10° WNW 20:46:34 52° SSW 20:49:58 15° SE
SWARM C 4.5 20:46:05 10° N 20:49:26 88° ENE 20:52:33 11° S
SWARM A 4.2 20:46:13 10° N 20:49:33 89° W 20:52:42 11° S
Cosmos 1470 Rocket 3.8 20:45:53 10° NNW 20:50:23 72° W 20:54:51 10° S
Cosmos 1812 2.7 20:47:36 10° S 20:51:25 64° E 20:55:16 10° NNE
Cosmos 1328 Rocket 3.7 20:47:03 10° SSW 20:51:29 81° W 20:55:56 10° N
Cosmos 1340 Rocket 4.3 20:49:12 10° N 20:52:41 26° ENE 20:55:28 14° ESE
Cosmos 1777 Rocket 4.0 20:48:03 10° SSW 20:53:12 67° ESE 20:58:23 10° NNE
ARIANE 5 R/B 2.7 20:52:22 12° SSE 20:56:26 78° WSW 21:00:48 10° NNW
Cosmos 1666 2.6 20:53:42 10° N 20:57:29 85° E 21:00:28 15° SSE
CARTOSAT-1 3.7 20:56:42 12° S 21:00:39 78° WSW 21:04:59 10° NNW
Cosmos 1833 Rocket 3.1 20:56:34 10° NW 21:02:07 57° WSW 21:07:04 13° S
Meteor 1-5 Rocket 4.3 20:57:55 10° NNW 21:03:20 73° W 21:08:22 11° S
Cosmos 2154 Rocket 4.2 20:58:20 10° N 21:04:39 61° ENE 21:09:43 16° SSE
Cosmos 1933 Rocket 3.6 21:00:17 10° NNW 21:04:39 77° W 21:08:26 13° S
Cosmos 923 Rocket 4.1 21:00:53 10° NNW 21:06:09 70° ENE 21:10:12 17° SE
BREEZE-M R/B 2.3 21:04:07 10° WSW 21:06:24 37° S 21:07:49 20° ESE
Cosmos 1536 3.3 21:04:01 10° N 21:07:58 47° ENE 21:10:33 19° SE
Cosmos 1437 3.6 21:06:11 10° SSW 21:08:55 43° WNW 21:11:40 10° N
Meteor 1-10 Rocket 4.3 21:05:30 10° S 21:10:57 64° E 21:16:36 10° NNE
Cosmos 2184 Rocket 4.0 21:05:52 10° N 21:12:09 90° WSW 21:17:33 14° S
Cosmos 1743 3.9 21:08:52 10° N 21:12:19 30° ENE 21:14:28 18° ESE
USA 307 3.6 21:09:06 10° WNW 21:13:07 41° SSW 21:15:38 20° SSE
CZ-2C R/B 4.2 21:09:10 10° N 21:13:35 60° WNW 21:18:02 10° SSW
H-2A R/B 4.0 21:11:44 10° NNE 21:15:45 42° E 21:18:18 20° SSE
Cosmos 2074 Rocket 4.1 21:10:19 10° NNW 21:16:39 82° W 21:22:14 14° S
NOSS 3-4 (A) 4.0 21:11:21 10° NW 21:18:09 69° SW 21:24:06 18° SSE
NOSS 3-4 (C) 4.0 21:11:28 10° NW 21:18:16 69° SW 21:24:13 18° SSE
JB-3 4.2 21:14:25 10° NNE 21:18:21 90° WNW 21:21:59 11° SSW
SJ 16-02 1.3 21:19:40 10° SSW 21:24:06 72° ESE 21:28:32 10° NNE
Nadezhda 1 Rocket 4.1 21:19:52 15° S 21:25:03 60° E 21:31:10 10° NNE
Cosmos 1733 Rocket 4.1 21:21:29 10° N 21:25:23 32° ENE 21:27:49 19° ESE
USA 308 3.8 21:22:44 10° W 21:26:39 35° SW 21:28:43 22° SSE
NOSS 3-3 (A) 4.1 21:24:01 10° SW 21:29:58 81° NW 21:36:56 10° NE
NOSS 3-3 (C) 4.1 21:24:08 10° SW 21:30:05 81° NW 21:37:02 10° NE
ATLAS 2AS CENTAUR R/B 2.8 21:24:16 10° NW 21:31:49 85° SW 21:37:04 19° SE
Cosmos 1544 3.1 21:31:43 10° N 21:35:19 65° ENE 21:37:03 28° SSE
Terra 2.0 21:33:01 19° S 21:36:25 71° WSW 21:41:12 10° NNW
Iridium 4 Rocket 4.0 21:30:58 10° S 21:36:40 72° W 21:42:37 10° N
USA 215 3.6 21:30:31 10° E 21:37:00 68° N 21:43:29 10° WNW
Cosmos 1610 Rocket 4.5 21:33:21 10° NNW 21:39:32 85° W 21:44:05 19° S
ERBS 2.5 21:37:51 10° WNW 21:41:09 67° NNE 21:43:15 20° E
Cosmos 2082 Rocket 2.6 21:36:36 10° NW 21:42:04 53° WSW 21:45:50 20° S
SPOT 5 3.7 21:38:33 15° S 21:42:40 50° W 21:47:50 10° NNW
Cosmos 2112 Rocket 4.0 21:39:27 10° NNW 21:44:51 90° ESE 21:48:11 24° SSE
Resurs 01 Rocket 4.3 21:44:01 10° WSW 21:45:53 12° W 21:47:45 10° WNW
Cosmos 2084 4.0 21:42:53 10° WSW 21:47:01 59° NW 21:51:18 10° NE
Cosmos 44 3.5 21:43:15 10° NW 21:48:44 82° SW 21:51:59 24° SE
Cosmos 2228 Rocket 3.1 21:45:35 18° SSW 21:48:54 83° WNW 21:53:24 10° N
Cosmos 2366 rocket 4.5 21:46:04 10° N 21:52:03 48° ENE 21:55:56 21° SE
Cosmos 2084 Rocket 3.4 21:52:41 10° NW 21:56:56 88° SW 21:59:14 28° SE
Cosmos 1271 Rocket 3.6 21:54:20 12° SSW 21:57:56 49° WNW 22:01:51 10° N
Spot 4 4.4 21:55:19 23° SE 21:58:04 51° ENE 22:02:46 10° N
Cosmos 2341 Rocket 4.1 21:53:36 10° N 22:00:03 79° ENE 22:04:08 24° SSE
BREEZE-M DEB (TANK) 2.8 21:54:19 10° W 22:01:27 84° S 22:03:26 17° E
Meteor 1-27 Rocket 3.9 21:58:45 16° SSW 22:03:34 83° WNW 22:09:33 10° NNE
Cosmos 1515 4.0 22:04:29 34° SE 22:05:38 47° E 22:09:18 10° NNE
Cosmos 2278 Rocket 2.9 22:04:38 10° SW 22:10:12 56° NW 22:15:48 10° NNE
SL-24 R/B - RUBIN 2 4.2 22:05:11 10° NW 22:10:41 58° SW 22:13:07 29° SSE
Cosmos 1937 Rocket 3.8 22:09:32 28° SSE 22:11:54 49° ESE 22:16:53 10° NE
Cosmos 1680 Rocket 4.0 22:06:46 10° NNW 22:11:56 52° WSW 22:14:52 25° S
Cosmos 1862 Rocket 4.0 22:10:39 31° SE 22:12:12 44° E 22:16:20 10° NNE
Cosmos 2218 Rocket 4.1 22:08:15 10° N 22:14:32 69° ENE 22:18:16 26° SSE
Cosmos 1943 Rocket 2.6 22:13:55 27° SSE 22:16:29 45° ESE 22:21:47 10° NE
Cosmos 2369 Rocket 3.3 22:17:10 24° SE 22:18:50 28° ESE 22:23:32 10° NE
Gbstr 26 Del rocket 4.1 22:12:04 10° W 22:19:27 63° SSW 22:23:48 21° SE
Meteor 1-19 Rocket 4.4 22:19:24 29° SSE 22:21:58 53° E 22:27:13 10° NNE
Cosmos 1238 Rocket 3.8 22:15:44 10° N 22:22:07 88° W 22:25:12 29° S
Meteor 2-9 Rocket 4.2 22:19:41 10° NNW 22:25:33 85° ENE 22:28:36 29° SSE
Cosmos 1340 Rocket 3.9 22:25:27 10° NNW 22:29:15 38° W 22:31:03 25° SW
Okean 1 3.2 22:29:36 39° S 22:30:59 77° E 22:35:00 10° NNE
Cosmos 1818 3.7 22:26:15 10° NW 22:31:40 61° SW 22:34:12 31° SSE
Okean 1-7 4.3 22:31:00 23° ESE 22:32:08 26° E 22:35:43 10° NNE
Cosmos 1707 Rocket 3.8 22:33:00 27° SSW 22:35:19 66° WNW 22:39:45 10° N
DNEPR-1 R/B 4.2 22:34:46 26° SSW 22:37:42 54° SE 22:42:27 10° NE
SL-8 Rocket 4.1 22:31:35 10° NNW 22:37:56 76° W 22:41:32 27° S
ALOS 2 2.7 22:41:06 35° SSE 22:42:51 71° ENE 22:47:15 10° N
Cosmos 1743 4.2 22:44:41 10° NNW 22:48:02 29° W 22:49:32 22° SW
Meteor 2-4 Rocket 4.0 22:47:04 31° SSE 22:49:40 55° E 22:55:08 10° NNE
Cosmos 1898 Rocket 3.8 22:47:28 18° SW 22:51:23 69° WNW 22:56:45 10° NNE
SL-27 R/B 3.4 22:49:45 10° NNW 22:52:54 38° ENE 22:53:51 31° E
Cosmos 1975 3.0 22:55:24 10° NNW 22:59:20 60° W 23:00:28 41° SSW
RESURS DK-1 2.4 22:57:49 10° NNW 23:02:01 79° NE 23:03:31 39° SE
SJ 16-02 3.8 22:59:48 10° W 23:03:10 21° NW 23:06:34 10° N
Cosmos 1733 Rocket 4.2 22:59:19 10° NNW 23:03:13 33° W 23:04:54 24° SW
Cosmos 2297 Rocket 4.4 23:00:39 10° NNW 23:05:04 23° NNE 23:09:30 10° E
Cosmos 1833 4.2 23:00:26 10° NNW 23:06:14 84° ENE 23:09:23 28° SE
SeaSat 1 3.8 23:03:35 10° NE 23:07:33 24° ESE 23:08:32 22° SE
Cosmos 1461 3.2 23:07:22 39° S 23:08:55 61° SE 23:13:28 10° NE
Cosmos 2297 3.9 23:04:37 17° SW 23:09:07 69° NW 23:14:48 10° NNE
Cosmos 372 Rocket 3.8 23:07:02 34° SSW 23:09:18 79° ESE 23:14:26 10° NNE
Meteor 1-12 Rocket 4.5 23:03:47 10° N 23:09:41 67° ENE 23:12:43 29° SSE
Cosmos 2242 Rocket 3.7 23:09:01 41° SSE 23:10:26 66° E 23:14:53 10° NNE
Cosmos 1900 4.5 23:09:19 18° SW 23:13:07 76° NW 23:18:11 10° NE
Terra 4.3 23:13:35 10° WSW 23:15:04 11° W 23:16:33 10° WNW
ISS -1.6 23:18:16 16° E 23:18:16 16° E 23:19:08 10° E
Cosmos 468 4.4 23:10:53 10° NNW 23:16:12 81° WSW 23:18:27 35° SSE
ERBS 3.8 23:14:09 10° WNW 23:16:00 24° WSW 23:16:00 24° WSW
Cosmos 494 Rocket 3.9 23:12:28 10° NNW 23:17:43 83° ENE 23:20:07 33° SSE
Cosmos 1908 Rocket 3.8 23:13:48 10° NNW 23:18:14 59° W 23:19:43 38° SSW
Meteor 1-18 Rocket 4.4 23:16:26 26° SSW 23:19:37 66° WNW 23:25:12 10° N
Cosmos 1300 Rocket 4.4 23:15:34 10° N 23:19:48 42° ENE 23:21:41 27° SE
USA 215 3.2 23:13:57 12° SE 23:20:02 75° SSW 23:26:36 10° WNW
ATLAS 2AS CENTAUR R/B 4.0 23:16:07 10° WNW 23:21:50 25° WSW 23:24:29 20° SW
MTI 3.4 23:18:49 10° NNE 23:21:51 83° ESE 23:21:54 82° SE
Okean 2 Rocket 4.2 23:17:46 10° N 23:21:52 36° ENE 23:23:56 23° ESE
Nimbus 7 Rocket 4.4 23:17:55 10° NNE 23:23:48 69° ESE 23:26:37 32° S
Cosmos 1867 3.9 23:25:56 35° S 23:27:43 48° ESE 23:32:58 10° NE
Cosmos 44 Rocket 3.5 23:22:40 10° NW 23:27:56 76° NE 23:31:23 21° SE
Cosmos 1125 Rocket 4.0 23:26:49 33° SSE 23:28:35 44° ESE 23:33:31 10° NE
SAR-Lupe-2 3.6 23:28:34 10° NNE 23:32:10 76° WNW 23:32:57 51° SW
Cosmos 1378 3.2 23:34:53 51° SE 23:35:33 62° E 23:39:14 10° NNE
Cosmos 2344 4.2 23:29:01 10° NW 23:37:55 80° SW 23:50:19 10° SE
Cosmos 1821 Rocket 4.1 23:31:47 10° NNW 23:38:12 73° W 23:41:25 31° S
ATLAS CENTAUR R/B 2.1 23:38:30 32° ESE 23:38:30 32° ESE 23:41:46 10° ENE
Cosmos 1934 Rocket 4.0 23:32:38 10° N 23:38:50 72° ENE 23:42:10 28° SSE
USA 281 3.9 23:37:38 10° ESE 23:43:55 51° NE 23:50:15 10° NNW
Cosmos 1782 Rocket 4.0 23:45:42 10° NNW 23:50:02 50° W 23:51:22 37° SW
Cosmos 1703 Rocket 3.9 23:48:52 35° SW 23:50:30 57° WNW 23:54:52 10° N
Okean 3 3.4 23:50:46 45° S 23:52:03 84° ESE 23:56:19 10° NNE
Meteor 1-15 Rocket 4.2 23:47:11 10° NNW 23:52:54 86° ENE 23:55:50 31° SSE
NOSS 2-1 (C) 3.9 23:48:56 10° NW 23:53:30 84° SW 23:58:29 17° SE
Lacrosse 5 3.5 23:54:51 19° SE 23:55:07 19° SE 23:58:35 10° E
